Aurora, NE

11:40 AM CDT on April 23, 2018 (GMT -0500)
Aurora Municipal

Weather History for KAUH - February, 2013

Change the Weather History Date:

Saturday, February 23, 2013

  Actual Average Record
Temperature  
Mean Temperature 20 °F -  
Max Temperature 34 °F 44 °F 74 °F (1982)
Min Temperature 5 °F 21 °F -6 °F (1989)
Degree Days  
Heating Degree Days 46    
Moisture  
Dew Point 20 °F    
Average Humidity 78    
Maximum Humidity 89    
Minimum Humidity 68    
Precipitation  
Precipitation 0.03 in - - ()
Sea Level Pressure  
Sea Level Pressure 29.84 in    
Wind  
Wind Speed 7 mph (SSW)    
Max Wind Speed 14 mph    
Max Gust Speed 17 mph    
Visibility 9 miles    
Events      
Averages and records for this station are not official NWS values.
T = Trace of Precipitation, MM = Missing Value Source: NWS Daily Summary

Daily Weather History Graph

Daily Weather History Graph

Search for Another Location

Airport or City:

Astronomy

Feb. 23, 2013 Rise Set
Actual Time 7:14 AM CST 6:16 PM CST
Civil Twilight 6:46 AM CST 6:44 PM CST
Nautical Twilight 6:15 AM CST 7:16 PM CST
Astronomical Twilight 5:43 AM CST 7:47 PM CST
Moon 4:27 PM CST 5:38 AM CST
Length of Visible Light 11h 57m
Length of Day
11h 01m
Waxing Gibbous, 95% of the Moon is Illuminated
Feb 23
Waxing Gibbous
Feb 25
Full
Mar 4
Last Quarter
Mar 11
New
Mar 19
First Quarter

Hourly Weather History & Observations

Time (CST) Temp. Windchill Dew Point Humidity Pressure Visibility Wind Dir Wind Speed Gust Speed Precip Events Conditions
12:15 AM - - - N/A% 29.96 in 7.0 mi WSW 6.9 mph - N/A   Clear
12:35 AM - - - N/A% 29.96 in 7.0 mi WSW 5.8 mph - N/A   Clear
12:55 AM - - - N/A% 29.96 in 7.0 mi WSW 6.9 mph - N/A   Clear
1:15 AM - - - N/A% 29.95 in 7.0 mi WSW 5.8 mph - N/A   Clear
1:35 AM - - - N/A% 29.95 in 7.0 mi SW 3.5 mph - N/A   Clear
1:55 AM - - - N/A% 29.94 in 7.0 mi SW 4.6 mph - N/A   Clear
2:15 AM - - - N/A% 29.93 in 10.0 mi SW 3.5 mph - N/A   Clear
2:35 AM - - - N/A% 29.93 in 10.0 mi SW 3.5 mph - N/A   Clear
2:55 AM - - - N/A% 29.92 in 10.0 mi SW 3.5 mph - N/A   Clear
3:15 AM - - - N/A% 29.90 in 10.0 mi SW 6.9 mph - N/A   Clear
3:35 AM - - - N/A% 29.90 in 10.0 mi SW 5.8 mph - N/A   Clear
3:55 AM - - - N/A% 29.89 in 10.0 mi SW 5.8 mph - N/A   Clear
4:15 AM - - - N/A% 29.89 in 10.0 mi SSW 4.6 mph - N/A   Clear
4:35 AM - - - N/A% 29.88 in 10.0 mi SSW 4.6 mph - N/A   Clear
4:55 AM - - - N/A% 29.88 in 10.0 mi SW 5.8 mph - N/A   Clear
5:15 AM - - - N/A% 29.88 in 10.0 mi SW 6.9 mph - N/A   Clear
5:35 AM - - - N/A% 29.88 in 10.0 mi SW 6.9 mph - N/A   Clear
5:55 AM - - - N/A% 29.88 in 10.0 mi SW 6.9 mph - N/A   Clear
6:15 AM - - - N/A% 29.87 in 10.0 mi SSW 5.8 mph - N/A   Clear
6:35 AM - - - N/A% 29.87 in 10.0 mi SW 5.8 mph - N/A   Clear
6:55 AM - - - N/A% 29.86 in 10.0 mi SW 5.8 mph - N/A   Clear
7:15 AM - - - N/A% 29.86 in 10.0 mi SW 6.9 mph - N/A   Clear
7:35 AM - - - N/A% 29.86 in 7.0 mi SW 3.5 mph - N/A   Clear
7:55 AM - - - N/A% 29.85 in 7.0 mi SW 5.8 mph - N/A   Clear
8:15 AM 5.9 °F -3.0 °F 2.3 °F 85% 29.86 in 7.0 mi SW 4.6 mph - N/A   Clear
8:35 AM 7.7 °F -0.9 °F 4.1 °F 85% 29.86 in 7.0 mi SW 4.6 mph - N/A   Clear
8:55 AM 10.8 °F -1.1 °F 7.7 °F 87% 29.86 in 10.0 mi SW 8.1 mph - N/A   Clear
9:15 AM 12.2 °F 1.7 °F 9.1 °F 88% 29.86 in 10.0 mi SW 6.9 mph - N/A   Clear
9:35 AM 13.1 °F 2.8 °F 9.9 °F 87% 29.86 in 10.0 mi SW 6.9 mph - N/A   Clear
9:55 AM 16.2 °F 10.6 °F 12.4 °F 85% 29.85 in 10.0 mi WSW 3.5 mph - N/A   Clear
10:15 AM 18.7 °F 10.6 °F 13.5 °F 80% 29.85 in 10.0 mi SW 5.8 mph - N/A   Clear
10:35 AM 21.2 °F 13.6 °F 15.1 °F 77% 29.85 in 10.0 mi SW 5.8 mph - N/A   Clear
10:55 AM 23.7 °F 15.6 °F 16.9 °F 75% 29.84 in 10.0 mi SW 6.9 mph - N/A   Clear
11:15 AM 25.5 °F 17.8 °F 18.0 °F 73% 29.84 in 10.0 mi SW 6.9 mph - N/A   Clear
11:35 AM 27.0 °F 17.3 °F 18.7 °F 71% 29.84 in 10.0 mi SW 10.4 mph - N/A   Clear
11:55 AM 27.9 °F 19.1 °F 19.8 °F 72% 29.84 in 10.0 mi SSW 9.2 mph - N/A   Clear
12:15 PM 28.4 °F 19.1 °F 19.4 °F 69% 29.84 in 10.0 mi SSW 10.4 mph - N/A   Clear
12:35 PM 29.1 °F 20.0 °F 19.9 °F 69% 29.83 in 10.0 mi SSW 10.4 mph - 0.02 in   Clear
12:55 PM 29.3 °F 20.8 °F 20.5 °F 70% 29.83 in 10.0 mi SW 9.2 mph - 0.03 in   Clear
1:15 PM 31.1 °F 22.4 °F 22.1 °F 69% 29.82 in 10.0 mi SW 10.4 mph - N/A   Clear
1:35 PM 32.0 °F 24.2 °F 23.2 °F 70% 29.82 in 10.0 mi SW 9.2 mph - N/A   Clear
1:55 PM 32.5 °F 26.2 °F 23.7 °F 70% 29.81 in 10.0 mi SSW 6.9 mph - N/A   Clear
2:15 PM 33.8 °F 26.4 °F 24.8 °F 70% 29.81 in 10.0 mi SSW 9.2 mph - N/A   Clear
2:35 PM 34.2 °F 26.2 °F 25.2 °F 70% 29.80 in 10.0 mi SSW 10.4 mph - N/A   Clear
2:55 PM 34.7 °F 26.9 °F 25.0 °F 68% 29.79 in 10.0 mi SSW 10.4 mph - N/A   Clear
3:15 PM 34.5 °F 26.7 °F 25.2 °F 69% 29.79 in 10.0 mi South 10.4 mph - N/A   Clear
3:35 PM 34.3 °F 26.5 °F 25.2 °F 69% 29.78 in 10.0 mi South 10.4 mph - N/A   Clear
3:55 PM 34.7 °F 26.4 °F 25.3 °F 69% 29.77 in 10.0 mi South 11.5 mph - N/A   Clear
4:15 PM 33.8 °F 24.3 °F 25.3 °F 71% 29.77 in 10.0 mi South 13.8 mph - N/A   Clear
4:35 PM 33.8 °F 24.8 °F 25.2 °F 71% 29.77 in 10.0 mi South 12.7 mph - N/A   Clear
4:55 PM 32.2 °F 24.4 °F 24.8 °F 74% 29.77 in 10.0 mi South 9.2 mph - N/A   Clear
5:15 PM 32.0 °F 22.5 °F 24.4 °F 74% 29.77 in 10.0 mi South 12.7 mph 17.3 mph N/A   Clear
5:35 PM 31.6 °F 23.1 °F 24.3 °F 74% 29.78 in 10.0 mi South 10.4 mph 17.3 mph N/A   Clear
5:55 PM 30.9 °F 23.5 °F 24.3 °F 76% 29.78 in 10.0 mi South 8.1 mph - N/A   Clear
6:15 PM 30.0 °F 21.7 °F 23.9 °F 78% 29.79 in 10.0 mi South 9.2 mph - N/A   Clear
6:55 PM 28.9 °F 21.9 °F 23.0 °F 78% 29.77 in 10.0 mi South 6.9 mph - N/A   Clear
7:15 PM 28.2 °F 21.0 °F 22.6 °F 80% 29.78 in 10.0 mi SSW 6.9 mph - N/A   Clear
7:35 PM 27.3 °F 17.7 °F 22.1 °F 81% 29.79 in 10.0 mi SSW 10.4 mph - N/A   Clear
7:55 PM 27.5 °F 16.3 °F 22.5 °F 81% 29.79 in 10.0 mi SSW 13.8 mph - N/A   Clear
8:15 PM 27.5 °F 17.4 °F 22.6 °F 82% 29.80 in 10.0 mi SSW 11.5 mph - N/A   Clear
8:35 PM 27.1 °F 18.9 °F 22.1 °F 81% 29.80 in 10.0 mi South 8.1 mph - N/A   Clear
8:55 PM 26.8 °F 19.3 °F 22.3 °F 83% 29.80 in 10.0 mi South 6.9 mph - N/A   Clear
9:15 PM 26.2 °F 17.1 °F 21.9 °F 84% 29.82 in 10.0 mi SSW 9.2 mph - N/A   Clear
9:35 PM 24.4 °F 14.9 °F 20.7 °F 86% 29.82 in 7.0 mi SSW 9.2 mph - N/A   Clear
9:55 PM 24.8 °F 15.3 °F 21.2 °F 86% 29.82 in 7.0 mi SSW 9.2 mph - N/A   Clear
10:15 PM 24.4 °F 14.9 °F 21.0 °F 87% 29.82 in 7.0 mi SSW 9.2 mph - N/A   Clear
10:35 PM 23.9 °F 14.2 °F 21.2 °F 89% 29.82 in 7.0 mi SSW 9.2 mph - N/A   Clear
10:55 PM 24.6 °F 15.1 °F 21.7 °F 89% 29.82 in 7.0 mi SSW 9.2 mph - N/A   Clear
11:15 PM 23.9 °F 16.8 °F 21.2 °F 89% 29.82 in 7.0 mi SSW 5.8 mph - N/A   Clear
11:35 PM 24.6 °F 16.7 °F 21.9 °F 89% 29.81 in 7.0 mi SSW 6.9 mph - N/A   Clear
11:55 PM 24.1 °F 17.0 °F 21.4 °F 89% 29.81 in 7.0 mi South 5.8 mph - N/A   Clear